Weather History for Ankeny, IA

Change the Weather History Date:

Friday, March 28, 2014

  Actual Average (KDSM) Record (KDSM)
Temperature  
Mean Temperature 34 °F 44 °F  
Max Temperature 37 °F 55 °F 82 °F (1910)
Min Temperature 32 °F 34 °F 9 °F (1970)
Degree Days  
Heating Degree Days 30 21  
Month to date heating degree days 737  
Since 1 July heating degree days 5568  
Cooling Degree Days 0 0  
Month to date cooling degree days 0  
Year to date cooling degree days 0  
Moisture  
Dew Point 30 °F    
Average Humidity 82    
Maximum Humidity 93    
Minimum Humidity 75    
Precipitation  
Precipitation 0.00 in 0.09 in 1.47 in (1987)
Month to date precipitation 2.02  
Year to date precipitation 4.30  
Snow  
Snow 0.00 in 0.10 in 7.20 in (1886)
Month to date snowfall 4.8  
Since 1 July snowfall 33.1  
Snow Depth -    
Sea Level Pressure  
Sea Level Pressure 30.03 in    
Wind  
Wind Speed 11 mph (NNW)    
Max Wind Speed 17 mph    
Max Gust Speed 25 mph    
Visibility 10 miles    
Events      
T = Trace of Precipitation, MM = Missing Value Source: NWS Daily Summary

Daily Weather History Graph

Daily Weather History Graph

Search for Another Location

Airport:

Trip Planner

Search our weather history database for the weather conditions in past years. The results will help you decide how hot, cold, wet, or windy it might be!

Date:

Astronomy

Mar. 28, 2014 Rise Set
Actual Time 7:03 AM CDT 7:35 PM CDT
Civil Twilight 6:36 AM CDT 8:03 PM CDT
Nautical Twilight 6:03 AM CDT 8:36 PM CDT
Astronomical Twilight 5:29 AM CDT 9:10 PM CDT
Moon 5:37 AM CDT (3/28) 5:31 PM CDT (3/28)
Length of Visible Light 13h 27m
Length of Day
12h 31m
Waning Crescent, 6% of the Moon is Illuminated
Mar 28
Waning Crescent
Mar 30
New
Apr 7
First Quarter
Apr 15
Full
Apr 22
Last Quarter

Hourly Weather History & Observations

Time (CDT) Temp. Windchill Dew Point Humidity Pressure Visibility Wind Dir Wind Speed Gust Speed Precip Events Conditions
12:15 AM 35.6 °F 25.9 °F 33.8 °F 93% 29.71 in 10.0 mi NW 16.1 mph 24.2 mph N/A   Overcast
12:35 AM 35.6 °F 25.5 °F 32.0 °F 87% 29.73 in 10.0 mi NW 17.3 mph 25.3 mph N/A   Overcast
12:55 AM 35.6 °F 26.2 °F 32.0 °F 87% 29.74 in 10.0 mi NW 15.0 mph 25.3 mph N/A   Overcast
1:15 AM 35.6 °F 25.5 °F 32.0 °F 87% 29.76 in 8.0 mi NW 17.3 mph 23.0 mph N/A   Overcast
1:35 AM 35.6 °F 27.1 °F 32.0 °F 87% 29.77 in 10.0 mi NW 12.7 mph 20.7 mph N/A   Overcast
1:55 AM 35.6 °F 26.2 °F 32.0 °F 87% 29.78 in 10.0 mi NW 15.0 mph - N/A   Overcast
2:15 AM 35.6 °F 26.6 °F 32.0 °F 87% 29.79 in 10.0 mi NW 13.8 mph - N/A   Overcast
2:35 AM 35.6 °F 27.5 °F 32.0 °F 87% 29.81 in 10.0 mi NW 11.5 mph 18.4 mph N/A   Overcast
2:55 AM 35.6 °F 26.2 °F 32.0 °F 87% 29.82 in 10.0 mi NW 15.0 mph - N/A   Overcast
3:15 AM 35.6 °F 25.5 °F 32.0 °F 87% 29.83 in 10.0 mi NW 17.3 mph 23.0 mph N/A   Overcast
3:35 AM 35.6 °F 26.6 °F 32.0 °F 87% 29.84 in 10.0 mi NNW 13.8 mph 23.0 mph N/A   Overcast
3:55 AM 33.8 °F 25.3 °F 32.0 °F 93% 29.85 in 10.0 mi NNW 11.5 mph 21.9 mph N/A   Overcast
4:15 AM 33.8 °F 24.3 °F 32.0 °F 93% 29.85 in 10.0 mi NNW 13.8 mph 19.6 mph N/A   Overcast
4:35 AM 33.8 °F 24.3 °F 30.2 °F 87% 29.86 in 10.0 mi NNW 13.8 mph 20.7 mph N/A   Overcast
4:55 AM 33.8 °F 23.9 °F 30.2 °F 87% 29.87 in 10.0 mi NNW 15.0 mph - N/A   Overcast
5:15 AM 33.8 °F 23.5 °F 30.2 °F 87% 29.88 in 10.0 mi NNW 16.1 mph 21.9 mph N/A   Overcast
5:35 AM 33.8 °F 23.9 °F 30.2 °F 87% 29.90 in 10.0 mi NNW 15.0 mph 25.3 mph N/A   Overcast
5:55 AM 33.8 °F 23.5 °F 30.2 °F 87% 29.92 in 10.0 mi North 16.1 mph 24.2 mph N/A   Overcast
6:15 AM 33.8 °F 24.8 °F 30.2 °F 87% 29.93 in 10.0 mi North 12.7 mph 20.7 mph N/A   Overcast
6:35 AM 33.8 °F 23.9 °F 28.4 °F 81% 29.94 in 10.0 mi North 15.0 mph 20.7 mph N/A   Overcast
7:15 AM 32.0 °F 22.5 °F 28.4 °F 87% 29.97 in 9.0 mi NNW 12.7 mph - N/A   Overcast
7:35 AM 33.8 °F 25.3 °F 28.4 °F 81% 29.98 in 9.0 mi NNW 11.5 mph 19.6 mph N/A   Overcast
7:55 AM 33.8 °F 25.3 °F 28.4 °F 81% 30.00 in 9.0 mi NNW 11.5 mph - N/A   Overcast
8:15 AM 33.8 °F 25.8 °F 28.4 °F 81% 30.02 in 9.0 mi NW 10.4 mph - N/A   Overcast
8:35 AM 33.8 °F 27.0 °F 28.4 °F 81% 30.01 in 9.0 mi North 8.1 mph - N/A   Overcast
8:55 AM 33.8 °F 26.4 °F 28.4 °F 81% 30.02 in 9.0 mi NNW 9.2 mph - N/A   Overcast
9:15 AM 33.8 °F 26.4 °F 28.4 °F 81% 30.02 in 9.0 mi North 9.2 mph - N/A   Overcast
9:35 AM 33.8 °F 25.8 °F 28.4 °F 81% 30.03 in 9.0 mi NNW 10.4 mph - N/A   Overcast
9:55 AM 33.8 °F 27.0 °F 28.4 °F 81% 30.03 in 9.0 mi North 8.1 mph - N/A   Overcast
10:15 AM 33.8 °F 27.7 °F 28.4 °F 81% 30.04 in 9.0 mi North 6.9 mph - N/A   Overcast
10:35 AM 33.8 °F 27.0 °F 30.2 °F 87% 30.06 in 9.0 mi NNE 8.1 mph - N/A   Overcast
10:55 AM 33.8 °F 27.0 °F 28.4 °F 81% 30.07 in 9.0 mi NNE 8.1 mph - N/A   Overcast
11:15 AM 33.8 °F 27.0 °F 28.4 °F 81% 30.07 in 10.0 mi NNW 8.1 mph - N/A   Overcast
11:35 AM 35.6 °F 28.0 °F 28.4 °F 75% 30.07 in 9.0 mi NNW 10.4 mph - N/A   Overcast
11:55 AM 35.6 °F 28.0 °F 30.2 °F 81% 30.07 in 9.0 mi North 10.4 mph - N/A   Overcast
12:15 PM 35.6 °F 29.2 °F 30.2 °F 81% 30.07 in 9.0 mi NE 8.1 mph 13.8 mph N/A   Overcast
12:35 PM 35.6 °F - 28.4 °F 75% 30.08 in 10.0 mi Calm Calm 11.5 mph N/A   Overcast
12:55 PM 35.6 °F 30.7 °F 30.2 °F 81% 30.09 in 9.0 mi North 5.8 mph - N/A   Overcast
1:15 PM 35.6 °F 31.7 °F 30.2 °F 81% 30.10 in 10.0 mi NNE 4.6 mph - N/A   Overcast
1:35 PM 35.6 °F 29.9 °F 30.2 °F 81% 30.11 in 9.0 mi North 6.9 mph - N/A   Overcast
1:55 PM 35.6 °F - 30.2 °F 81% 30.10 in 9.0 mi Calm Calm - N/A   Overcast
2:15 PM 35.6 °F 31.7 °F 30.2 °F 81% 30.10 in 9.0 mi North 4.6 mph - N/A   Overcast
2:35 PM 35.6 °F 32.8 °F 30.2 °F 81% 30.10 in 9.0 mi Variable 3.5 mph - N/A   Overcast
2:55 PM 35.6 °F - 30.2 °F 81% 30.11 in 10.0 mi Calm Calm - N/A   Overcast
3:15 PM 35.6 °F - 30.2 °F 81% 30.11 in 9.0 mi Calm Calm - N/A   Overcast
3:35 PM 37.4 °F 32.8 °F 30.2 °F 75% 30.11 in 9.0 mi NW 5.8 mph - N/A   Overcast
3:55 PM 37.4 °F 31.4 °F 30.2 °F 75% 30.12 in 8.0 mi NW 8.1 mph - N/A   Overcast
4:15 PM 37.4 °F 32.1 °F 30.2 °F 75% 30.12 in 9.0 mi NW 6.9 mph - N/A   Overcast
4:35 PM 37.4 °F 32.8 °F 30.2 °F 75% 30.13 in 9.0 mi NW 5.8 mph - N/A   Overcast
4:55 PM 37.4 °F 31.4 °F 30.2 °F 75% 30.12 in 9.0 mi NNW 8.1 mph - N/A   Overcast
5:15 PM 37.4 °F 31.4 °F 30.2 °F 75% 30.13 in 9.0 mi North 8.1 mph - N/A   Overcast
5:35 PM 37.4 °F 31.4 °F 30.2 °F 75% 30.12 in 9.0 mi NNW 8.1 mph - N/A   Overcast
5:55 PM 37.4 °F 31.4 °F 30.2 °F 75% 30.12 in 10.0 mi North 8.1 mph - N/A   Overcast
6:15 PM 37.4 °F 30.8 °F 30.2 °F 75% 30.13 in 10.0 mi North 9.2 mph - N/A   Overcast
6:35 PM 37.4 °F 32.1 °F 30.2 °F 75% 30.13 in 10.0 mi North 6.9 mph - N/A   Overcast
6:55 PM 35.6 °F 28.6 °F 30.2 °F 81% 30.13 in 9.0 mi NNE 9.2 mph - N/A   Overcast
7:15 PM 35.6 °F 29.2 °F 30.2 °F 81% 30.14 in 9.0 mi North 8.1 mph - N/A   Overcast
7:35 PM 35.6 °F 28.6 °F 30.2 °F 81% 30.14 in 10.0 mi NNE 9.2 mph - N/A   Overcast
7:55 PM 35.6 °F 30.7 °F 30.2 °F 81% 30.15 in 10.0 mi NNE 5.8 mph - N/A   Overcast
8:15 PM 35.6 °F 31.7 °F 30.2 °F 81% 30.17 in 10.0 mi North 4.6 mph - N/A   Overcast
8:35 PM 35.6 °F 31.7 °F 30.2 °F 81% 30.17 in 10.0 mi NNE 4.6 mph - N/A   Overcast
8:55 PM 35.6 °F 32.8 °F 30.2 °F 81% 30.18 in 10.0 mi North 3.5 mph - N/A   Overcast
9:15 PM 35.6 °F 30.7 °F 30.2 °F 81% 30.18 in 10.0 mi North 5.8 mph - N/A   Overcast
9:35 PM 35.6 °F 31.7 °F 30.2 °F 81% 30.18 in 10.0 mi North 4.6 mph - N/A   Overcast
9:55 PM 35.6 °F 30.7 °F 28.4 °F 75% 30.20 in 10.0 mi NW 5.8 mph - N/A   Overcast
10:15 PM 35.6 °F 29.9 °F 30.2 °F 81% 30.19 in 10.0 mi NW 6.9 mph - N/A   Overcast
10:35 PM 35.6 °F 29.9 °F 30.2 °F 81% 30.20 in 10.0 mi NW 6.9 mph - N/A   Overcast
10:55 PM 35.6 °F 30.7 °F 30.2 °F 81% 30.20 in 10.0 mi NW 5.8 mph - N/A   Overcast
11:15 PM 35.6 °F 29.2 °F 30.2 °F 81% 30.21 in 10.0 mi NW 8.1 mph - N/A   Overcast
11:35 PM 33.8 °F 26.4 °F 30.2 °F 87% 30.21 in 10.0 mi NW 9.2 mph - N/A   Overcast
11:55 PM 33.8 °F 26.4 °F 30.2 °F 87% 30.21 in 10.0 mi NW 9.2 mph - N/A   Overcast